Tracking 30261 objects as of 18-Feb-2025
HD Live streaming from Space Station
objects crossing your sky now

ATLAS 28E DEB

Track ATLAS 28E DEB now!
10-day predictions


NORAD ID: 20575
Int'l Code: 1990-031G
Perigee: 564.6 km
Apogee: 604.2 km
Inclination: 90.4 °
Period: 96.2 minutes
Semi major axis: 6955 km
RCS: Unknown
Launch date: April 11, 1990
Source: United States (US)
Launch site: AIR FORCE WESTERN TEST RANGE (AFWTR)

Note: This is SATELLITE DEBRIS
Your satellite tracking list
Your tracking list is empty




NASA's NSSDC Master Catalog

Two Line Element Set (TLE):
1 20575U 90031G   25048.89773700  .00007996  00000-0  69435-3 0  9993
2 20575  90.3539 276.4389 0028478  20.2398 339.9956 14.96649908322526
Source of the keplerian elements: AFSPC